Regional Weather Roundup
Issued by NWS

Home | Current Version | Previous Version | Text Only | Print | Product List | Glossary Off
Versions: 1 2 3 4 5 6 7 8 9 10 11 12 13 14 15 16 17 18 19 20 21 22 23 24 25 26 27 28 29 30 31 32 33 34 35 36 37 38 39 40 41 42 43 44 45 46 47 48 49 50

000
ASUS43 KIND 291259
RWRIN

WEATHER ROUNDUP FOR INDIANA
NATIONAL WEATHER SERVICE INDIANAPOLIS IN
900 AM EDT WED MAR 29 2017

NOTE: "FAIR" INDICATES FEW OR NO CLOUDS BELOW 12,000 FEET WITH NO
SIGNIFICANT WEATHER AND/OR OBSTRUCTIONS TO VISIBILITY.

* - STATION DOES NOT REPORT WEATHER SUCH AS PRECIPITATION OR FOG.

+ - STATION NOT QUALITY CONTROLLED BY THE NATIONAL WEATHER SERVICE.
    USE DATA WITH CAUTION...ESPECIALLY DEWPOINT AND RELATIVE
    HUMIDITY OBSERVATIONS.

INZ001>003-010>013-019-020-291400-
NORTHWEST INDIANA

CITY           SKY/WX    TMP DP  RH WIND       PRES   REMARKS
GARY /AIRPORT/ FOG       37  37 100 NE5       30.25S VSB 1/4
KNOX *+        MOSUNNY   36  32  87 E8        30.24S
MONTICELLO +   CLOUDY    42  38  85 E6        30.21S

$$

LMZ046-743>745-291400-
SOUTHERN LAKE MICHIGAN

STATION/POSITION TIME  TEMP    WIND        PRES    WAVE
                       AIR SEA DIR/SP/G            HT
                 (UTC) (F)     (DEG/KT/KT) (MB)    (FT)
BURNS HARBOR     1240   37      80/  6/  9 1024.7R
MICHIGAN CITY    1230   37      50/  9/ 10   N/A

$$

INZ004-005-014>016-021>024-291400-
NORTH CENTRAL INDIANA

CITY           SKY/WX    TMP DP  RH WIND       PRES   REMARKS
ELKHART        SUNNY     37  34  87 E6        30.27R
GOSHEN         SUNNY     38  33  82 E8        30.26R
SOUTH BEND     SUNNY     38  34  85 E12       30.26R

$$

INZ006>009-017-018-025>027-291400-
NORTHEAST INDIANA

CITY           SKY/WX    TMP DP  RH WIND       PRES   REMARKS
ANGOLA *+      SUNNY     37  28  70 E7        30.26R
FORT WAYNE     MOSUNNY   39  34  82 E12       30.26R
KENDALLVILLE + SUNNY     37  33  87 E5        30.27R

$$

INZ028-029-035-036-043>045-051>053-291400-
WEST CENTRAL INDIANA

CITY           SKY/WX    TMP DP  RH WIND       PRES   REMARKS
CRAWFORDSVL +  CLOUDY    44  44 100 E15       30.18R
GREENCASTLE +  CLOUDY    46  43  87 E13       30.16F
LAFAYETTE      MOSUNNY   45  41  86 E10       30.20S
TERRE HAUTE    CLOUDY    51  44  77 E15       30.13F

$$

INZ030>032-037>040-046>048-054>057-064-065-291400-
CENTRAL INDIANA

CITY           SKY/WX    TMP DP  RH WIND       PRES   REMARKS
ANDERSON       PTSUNNY   43  39  87 NE8       30.21  FOG
COLUMBUS       CLOUDY    46  46 100 NE14      30.18R
INDIANAPOLIS   PTSUNNY   47  39  74 E14       30.18R
-EAGLE CREEK   MOSUNNY   46  38  73 E12       30.18S
KOKOMO +       MOSUNNY   41  37  86 E16       30.22S
SHELBYVILLE    CLOUDY    47  39  74 E10       30.19R

$$

INZ033-034-041-042-049-050-058-059-291400-
EAST CENTRAL INDIANA

CITY           SKY/WX    TMP DP  RH WIND       PRES   REMARKS
MUNCIE         CLOUDY    41  37  86 NE12      30.22R
RICHMOND +     MOSUNNY   37  36  93 E14       30.20R

$$

INZ060-061-067>069-081>083-085>088-291400-
SOUTHWEST INDIANA

CITY           SKY/WX    TMP DP  RH WIND       PRES   REMARKS
EVANSVILLE     CLOUDY    53  48  83 E8        30.10R
HUNTINGBURG *+ SUNNY     53  48  83 E8        30.11R

$$

INZ062-063-066-070>080-084-089>092-291400-
SOUTH CENTRAL AND SOUTHEAST INDIANA

CITY           SKY/WX    TMP DP  RH WIND       PRES   REMARKS
BLOOMINGTON    CLOUDY    50  43  77 E9        30.13S
MADISON *+     CLOUDY    46  45  93 NE9       30.18R
SEYMOUR +      CLOUDY    52  45  76 NE12      30.16R

$$





USA.gov is the U.S. government's official web portal to all federal, state and local government web resources and services.